User: anonymous   Login
Location: Campillo
(40.8621°N, 4.2488°W)
Time: 13:51:52
(UTC+00:00)
Language:

Tiangong - Orbit

View from above orbital plane
View from above orbital plane
View from above satellite
View from above satellite

Ground track
Ground track

The orbit data is extracted from the following two-line orbital elements,

1 48274U 21035A   21260.23294387  .00010045  00000-0  11596-3 0  9990
2 48274  41.4705  81.4729 0002380 293.4275 233.5877 15.61896216 22097
Epoch (UTC): 17 September 2021 05:35:26
Eccentricity: 0.0002380
inclination: 41.4705°
perigee height: 380 km
apogee height: 384 km
right ascension of ascending node: 81.4729°
argument of perigee: 293.4275°
revolutions per day: 15.61896216
mean anomaly at epoch: 233.5877°
orbit number at epoch: 2209

The dashed part of the orbit path shows where the satellite is in the earth's shadow,  

DLR